Change the Weather History Date:

Saturday, March 15, 2014

  Actual Average Record
Temperature  
Mean Temperature 62 °F -  
Max Temperature 73 °F 72 °F - ()
Min Temperature 52 °F 55 °F - ()
Degree Days  
Heating Degree Days 2    
Growing Degree Days 12 (Base 50)    
Moisture  
Dew Point 57 °F    
Average Humidity 76    
Maximum Humidity 94    
Minimum Humidity 53    
Precipitation  
Precipitation 0.00 in - - ()
Sea Level Pressure  
Sea Level Pressure 30.00 in    
Wind  
Wind Speed 5 mph ()    
Max Wind Speed 10 mph    
Max Gust Speed -    
Visibility 8.1 miles    
Events      
T = Trace of Precipitation, MM = Missing Value Source: Averaged Metar Reports

Daily Weather History Graph

Daily Weather History Graph

Search for Another Location

Airport or City:

Trip Planner

Search our weather history database for the weather conditions in past years. The results will help you decide how hot, cold, wet, or windy it might be!

Date:

Astronomy

Mar. 15, 2014 Rise Set
Actual Time 6:29 AM SAST 6:48 PM SAST
Civil Twilight 6:04 AM SAST 7:13 PM SAST
Nautical Twilight 5:35 AM SAST 7:42 PM SAST
Astronomical Twilight 5:05 AM SAST 8:12 PM SAST
Moon 5:58 PM SAST (3/15) 5:11 AM SAST (3/15)
Length of Visible Light 13h 09m
Length of Day
12h 19m
Waxing Gibbous, 98% of the Moon is Illuminated
Mar 15
Waxing Gibbous
Mar 16
Full
Mar 24
Last Quarter
Mar 30
New
Apr 7
First Quarter

Hourly Weather History & Observations

Time (SAST) Temp. Dew Point Humidity Pressure Visibility Wind Dir Wind Speed Gust Speed Precip Events Conditions
2:00 AM 54 °F 50 °F 81% 30.00 in 12 mi NNW 3.5 mph - -  
5:00 AM - - % 29.98 in 12 mi NNW 5.8 mph - -  
5:00 AM 53.6 °F 48.2 °F 82% 29.98 in - NNW 5.8 mph - N/A   Clear
6:00 AM 53.6 °F 48.2 °F 82% 29.98 in 6.2 mi West 4.6 mph - N/A   Scattered Clouds
7:00 AM 53.6 °F 50.0 °F 88% 30.01 in 6.2 mi NW 3.5 mph - N/A   Mostly Cloudy
8:00 AM 60 °F 54 °F 76% 30.01 in 12 mi NW 3.5 mph - -   Scattered Clouds
8:00 AM 59.0 °F 53.6 °F 82% 30.01 in 6.2 mi NW 3.5 mph - N/A   Partly Cloudy
9:00 AM 62.6 °F 57.2 °F 82% 30.01 in - West 3.5 mph - N/A   Clear
10:00 AM 68.0 °F 55.4 °F 64% 30.01 in - Variable 2.3 mph - N/A   Clear
11:00 AM 69 °F 58 °F 59% 30.03 in 12 mi SSE 5.8 mph - -   Scattered Clouds
11:00 AM 69.8 °F 59.0 °F 68% 30.01 in 6.2 mi Variable 5.8 mph - N/A   Partly Cloudy
12:00 PM 69.8 °F 59.0 °F 68% 30.01 in 6.2 mi SE 8.1 mph - N/A   Partly Cloudy
1:00 PM 73.4 °F 55.4 °F 53% 30.01 in 6.2 mi SE 9.2 mph - N/A   Partly Cloudy
2:00 PM 71 °F 61 °F 63% 29.99 in 12 mi SSE 9.2 mph - -   Scattered Clouds
2:00 PM 69.8 °F 60.8 °F 73% 29.98 in 6.2 mi SSE 9.2 mph - N/A   Partly Cloudy
3:00 PM 71.6 °F 59.0 °F 64% 29.98 in 6.2 mi ESE 10.4 mph - N/A   Partly Cloudy
4:00 PM 69.8 °F 60.8 °F 73% 29.98 in 6.2 mi SE 10.4 mph - N/A   Partly Cloudy
5:00 PM 69 °F 62 °F 71% 29.98 in 12 mi SE 9.2 mph - -   Partly Cloudy
5:00 PM 69.8 °F 60.8 °F 73% 29.98 in 6.2 mi SE 10.4 mph - N/A   Scattered Clouds
6:00 PM 66.2 °F 60.8 °F 83% 29.98 in 6.2 mi ESE 9.2 mph - N/A   Mostly Cloudy
7:00 PM 64.4 °F 60.8 °F 88% 30.01 in 6.2 mi East 6.9 mph - N/A   Mostly Cloudy
8:00 PM 64 °F 61 °F 87% 30.00 in 12 mi East 8.1 mph - -   Mostly Cloudy
8:00 PM 64.4 °F 60.8 °F 88% 30.01 in 6.2 mi East 5.8 mph - N/A   Mostly Cloudy
9:00 PM 64.4 °F 60.8 °F 88% 30.01 in 6.2 mi ESE 6.9 mph - N/A   Mostly Cloudy
10:00 PM 62.6 °F 60.8 °F 94% 30.01 in - East 4.6 mph - N/A   Mostly Cloudy